Stetsonville, WI

10:43 PM CST on February 07, 2016 (GMT -0600)
Taylor County

Weather History for KMDZ - October, 2012

Change the Weather History Date:

Friday, October 5, 2012

  Actual Average Record
Temperature  
Mean Temperature 42 °F -  
Max Temperature 46 °F 60 °F 78 °F (2005)
Min Temperature 37 °F 38 °F 18 °F (1952)
Degree Days  
Heating Degree Days 24    
Moisture  
Dew Point 26 °F    
Average Humidity 58    
Maximum Humidity 70    
Minimum Humidity 43    
Precipitation  
Precipitation 0.00 in - - ()
Sea Level Pressure  
Sea Level Pressure 29.98 in    
Wind  
Wind Speed 18 mph (West)    
Max Wind Speed 24 mph    
Max Gust Speed 32 mph    
Visibility 10 miles    
Events      
Averages and records for this station are not official NWS values.
T = Trace of Precipitation, MM = Missing Value Source: NWS Daily Summary

Daily Weather History Graph

Daily Weather History Graph

Search for Another Location

Airport or City:

Trip Planner

Search our weather history database for the weather conditions in past years. The results will help you decide how hot, cold, wet, or windy it might be!

Date:

Astronomy

Oct. 05, 2012 Rise Set
Actual Time 7:04 AM CDT 6:33 PM CDT
Civil Twilight 6:35 AM CDT 7:02 PM CDT
Nautical Twilight 6:01 AM CDT 7:36 PM CDT
Astronomical Twilight 5:27 AM CDT 8:10 PM CDT
Moon 9:44 PM CDT (10/5) 12:25 PM CDT (10/5)
Length of Visible Light 12h 27m
Length of Day
11h 28m
Waning Gibbous, 74% of the Moon is Illuminated
Oct 5
Waning Gibbous
Oct 8
Last Quarter
Oct 15
New
Oct 21
First Quarter
Oct 29
Full

Hourly Weather History & Observations

Time (CDT) Temp. Windchill Dew Point Humidity Pressure Visibility Wind Dir Wind Speed Gust Speed Precip Events Conditions
12:15 AM 41.0 °F 31.6 °F 28.4 °F 61% 30.01 in 10.0 mi West 20.7 mph 31.1 mph N/A   Overcast
12:35 AM 39.2 °F 29.6 °F 26.6 °F 61% 30.01 in 10.0 mi West 19.6 mph 27.6 mph N/A   Scattered Clouds
12:55 AM 39.2 °F 29.8 °F 26.6 °F 61% 30.01 in 10.0 mi West 18.4 mph 31.1 mph N/A   Mostly Cloudy
1:15 AM 39.2 °F 29.6 °F 28.4 °F 65% 30.00 in 10.0 mi West 19.6 mph 25.3 mph N/A   Overcast
1:35 AM 39.2 °F 30.5 °F 28.4 °F 65% 30.00 in 10.0 mi West 16.1 mph 27.6 mph N/A   Overcast
1:55 AM 39.2 °F 30.2 °F 28.4 °F 65% 30.01 in 10.0 mi West 17.3 mph 24.2 mph N/A   Overcast
2:15 AM 39.2 °F 30.8 °F 28.4 °F 65% 30.00 in 10.0 mi West 15.0 mph 25.3 mph N/A   Overcast
2:35 AM 39.2 °F 29.6 °F 28.4 °F 65% 30.00 in 10.0 mi West 19.6 mph 28.8 mph N/A   Overcast
2:55 AM 39.2 °F 30.8 °F 26.6 °F 61% 30.00 in 10.0 mi West 15.0 mph 26.5 mph N/A   Overcast
3:15 AM 39.2 °F 30.8 °F 26.6 °F 61% 30.00 in 10.0 mi West 15.0 mph 24.2 mph N/A   Overcast
3:35 AM 39.2 °F 30.5 °F 26.6 °F 61% 30.00 in 10.0 mi West 16.1 mph 21.9 mph N/A   Overcast
3:55 AM 39.2 °F 30.2 °F 26.6 °F 61% 29.99 in 10.0 mi West 17.3 mph 29.9 mph N/A   Overcast
4:15 AM 39.2 °F 30.2 °F 26.6 °F 61% 29.99 in 10.0 mi West 17.3 mph 24.2 mph N/A   Overcast
4:35 AM 39.2 °F 29.0 °F 26.6 °F 61% 29.99 in 10.0 mi West 21.9 mph 26.5 mph N/A   Overcast
4:55 AM 39.2 °F 29.6 °F 26.6 °F 61% 29.99 in 10.0 mi West 19.6 mph 26.5 mph N/A   Overcast
5:15 AM 39.2 °F 30.5 °F 26.6 °F 61% 29.99 in 10.0 mi West 16.1 mph 29.9 mph N/A   Overcast
5:35 AM 39.2 °F 31.2 °F 26.6 °F 61% 29.99 in 10.0 mi West 13.8 mph 25.3 mph N/A   Overcast
5:55 AM 39.2 °F 30.8 °F 26.6 °F 61% 29.98 in 10.0 mi West 15.0 mph 20.7 mph N/A   Overcast
6:15 AM 39.2 °F 30.2 °F 26.6 °F 61% 29.98 in 10.0 mi West 17.3 mph 31.1 mph N/A   Overcast
6:35 AM 39.2 °F 31.2 °F 26.6 °F 61% 29.98 in 10.0 mi West 13.8 mph 24.2 mph N/A   Overcast
6:55 AM 39.2 °F 28.5 °F 26.6 °F 61% 29.98 in 10.0 mi West 24.2 mph 31.1 mph N/A   Overcast
7:15 AM 39.2 °F 29.6 °F 26.6 °F 61% 29.98 in 10.0 mi West 19.6 mph 26.5 mph N/A   Overcast
7:35 AM 39.2 °F 30.8 °F 26.6 °F 61% 29.99 in 10.0 mi West 15.0 mph 24.2 mph N/A   Overcast
7:55 AM 39.2 °F 29.8 °F 26.6 °F 61% 29.99 in 10.0 mi West 18.4 mph 24.2 mph N/A   Overcast
8:15 AM 39.2 °F 31.6 °F 26.6 °F 61% 29.99 in 10.0 mi West 12.7 mph 25.3 mph N/A   Overcast
8:35 AM 39.2 °F 29.3 °F 26.6 °F 61% 29.98 in 10.0 mi West 20.7 mph 31.1 mph N/A   Overcast
8:55 AM 39.2 °F 29.6 °F 26.6 °F 61% 29.98 in 10.0 mi West 19.6 mph 25.3 mph N/A   Overcast
9:15 AM 39.2 °F 30.5 °F 26.6 °F 61% 29.98 in 10.0 mi West 16.1 mph 26.5 mph N/A   Overcast
9:35 AM 39.2 °F 29.8 °F 26.6 °F 61% 29.98 in 10.0 mi West 18.4 mph 28.8 mph N/A   Overcast
9:55 AM 39.2 °F 29.0 °F 26.6 °F 61% 29.98 in 10.0 mi West 21.9 mph 32.2 mph N/A   Mostly Cloudy
10:15 AM 41.0 °F 32.8 °F 26.6 °F 57% 29.98 in 10.0 mi West 16.1 mph 26.5 mph N/A   Mostly Cloudy
10:35 AM 41.0 °F 32.2 °F 26.6 °F 57% 29.98 in 10.0 mi West 18.4 mph 25.3 mph N/A   Mostly Cloudy
10:55 AM 41.0 °F 32.2 °F 26.6 °F 57% 29.98 in 10.0 mi West 18.4 mph 24.2 mph N/A   Overcast
11:15 AM 41.0 °F 33.9 °F 26.6 °F 57% 29.98 in 10.0 mi West 12.7 mph 24.2 mph N/A   Overcast
11:35 AM 42.8 °F 35.1 °F 26.6 °F 53% 29.97 in 10.0 mi West 16.1 mph 26.5 mph N/A   Overcast
11:55 AM 42.8 °F 34.0 °F 26.6 °F 53% 29.98 in 10.0 mi West 20.7 mph 27.6 mph N/A   Overcast
12:15 PM 44.6 °F 36.6 °F 26.6 °F 49% 29.97 in 10.0 mi West 19.6 mph 26.5 mph N/A   Overcast
12:35 PM 44.6 °F 36.4 °F 26.6 °F 49% 29.97 in 10.0 mi WNW 20.7 mph 25.3 mph N/A   Mostly Cloudy
12:55 PM 44.6 °F 35.9 °F 24.8 °F 46% 29.96 in 10.0 mi West 23.0 mph 29.9 mph N/A   Mostly Cloudy
1:35 PM 44.6 °F 36.9 °F 26.6 °F 49% 29.96 in 10.0 mi WNW 18.4 mph 25.3 mph N/A   Mostly Cloudy
1:55 PM 42.8 °F 34.0 °F 24.8 °F 49% 29.95 in 10.0 mi West 20.7 mph 28.8 mph N/A   Mostly Cloudy
2:15 PM 44.6 °F 36.6 °F 24.8 °F 46% 29.96 in 10.0 mi West 19.6 mph 31.1 mph N/A   Mostly Cloudy
2:35 PM 46.4 °F 39.2 °F 24.8 °F 43% 29.95 in 10.0 mi West 18.4 mph 26.5 mph N/A   Overcast
2:55 PM 44.6 °F 36.6 °F 24.8 °F 46% 29.96 in 10.0 mi West 19.6 mph 27.6 mph N/A   Overcast
3:15 PM 42.8 °F 34.8 °F 24.8 °F 49% 29.96 in 10.0 mi West 17.3 mph 25.3 mph N/A   Overcast
3:35 PM 42.8 °F 34.5 °F 24.8 °F 49% 29.96 in 10.0 mi West 18.4 mph 25.3 mph N/A   Overcast
3:55 PM 42.8 °F 34.5 °F 24.8 °F 49% 29.96 in 10.0 mi West 18.4 mph 24.2 mph N/A   Overcast
4:15 PM 42.8 °F 34.8 °F 24.8 °F 49% 29.97 in 10.0 mi WNW 17.3 mph 26.5 mph N/A   Overcast
4:35 PM 41.0 °F 33.5 °F 24.8 °F 53% 29.97 in 10.0 mi West 13.8 mph 25.3 mph N/A   Overcast
4:55 PM 41.0 °F 31.9 °F 24.8 °F 53% 29.98 in 10.0 mi West 19.6 mph 31.1 mph N/A   Overcast
5:15 PM 41.0 °F 32.8 °F 24.8 °F 53% 29.98 in 10.0 mi West 16.1 mph 28.8 mph N/A   Overcast
5:35 PM 39.2 °F 30.2 °F 24.8 °F 56% 29.99 in 10.0 mi WNW 17.3 mph 23.0 mph N/A   Overcast
5:55 PM 39.2 °F 30.8 °F 24.8 °F 56% 29.99 in 10.0 mi WNW 15.0 mph 21.9 mph N/A   Overcast
6:15 PM 39.2 °F 31.2 °F 24.8 °F 56% 29.99 in 10.0 mi West 13.8 mph 18.4 mph N/A   Overcast
6:35 PM 39.2 °F 30.8 °F 24.8 °F 56% 29.99 in 10.0 mi West 15.0 mph 19.6 mph N/A   Overcast
6:55 PM 39.2 °F 32.0 °F 24.8 °F 56% 29.99 in 10.0 mi West 11.5 mph - N/A   Overcast
7:15 PM 39.2 °F 30.2 °F 24.8 °F 56% 29.99 in 10.0 mi West 17.3 mph 21.9 mph N/A   Overcast
7:35 PM 39.2 °F 30.2 °F 24.8 °F 56% 30.00 in 10.0 mi West 17.3 mph 23.0 mph N/A   Overcast
7:55 PM 39.2 °F 31.2 °F 24.8 °F 56% 30.00 in 10.0 mi West 13.8 mph 20.7 mph N/A   Overcast
8:15 PM 39.2 °F 32.5 °F 24.8 °F 56% 30.00 in 10.0 mi West 10.4 mph 17.3 mph N/A   Overcast
8:35 PM 37.4 °F 29.3 °F 24.8 °F 60% 30.00 in 10.0 mi West 12.7 mph 20.7 mph N/A   Overcast
8:55 PM 37.4 °F 28.9 °F 24.8 °F 60% 30.00 in 10.0 mi West 13.8 mph 23.0 mph N/A   Overcast
9:15 PM 37.4 °F 27.8 °F 24.8 °F 60% 30.00 in 10.0 mi West 17.3 mph - N/A   Overcast
9:35 PM 37.4 °F 29.8 °F 26.6 °F 65% 29.99 in 10.0 mi West 11.5 mph - N/A   Overcast
9:55 PM 37.4 °F 28.9 °F 26.6 °F 65% 29.99 in 10.0 mi West 13.8 mph 21.9 mph N/A   Mostly Cloudy
10:35 PM 37.4 °F 27.2 °F 26.6 °F 65% 29.99 in 10.0 mi WNW 19.6 mph 24.2 mph N/A   Overcast
10:55 PM 37.4 °F 29.3 °F 26.6 °F 65% 29.99 in 10.0 mi West 12.7 mph - N/A   Overcast
11:15 PM 37.4 °F 27.8 °F 26.6 °F 65% 29.99 in 10.0 mi West 17.3 mph 23.0 mph N/A   Overcast
11:35 PM 37.4 °F 28.9 °F 28.4 °F 70% 29.99 in 10.0 mi West 13.8 mph - N/A   Overcast
11:55 PM 37.4 °F 29.8 °F 28.4 °F 70% 29.98 in 10.0 mi West 11.5 mph 23.0 mph N/A   Overcast